Weather in Sokol

Russia / Vladimir Oblast     56°15′08″N   40°33′16″E
temp.,
°C
wind,
m/s
gust,
m/s
humid.,
%
clouds,
%
prec.,
mm/h
press.,
hPa
HPBL,
m
2 march, tue
tue200:00+1wsw61393100 0.0 1010564
03:00+1w61390100 0.0 1008602
06:00+1w61398100 0.1 1005672
09:00+1nw71298100 0.3 1005719
12:00+1wnw6119270 0.4 1004799
15:00+1nw6118983 0.6 1004900
18:00−1nw5118990 0.1 1005688
21:00−2nw6129193 0.3 1007891
3 march, wed
wed300:00−3nw6138997 0.1 1008819
03:00−7nw6148958 0.1 1010508
06:00−7nw6139194 0.1 1011626
09:00−7nw6139097 0.1 1012570
12:00−4wnw5108336 0.0 1012664
15:00−2wnw6108856 0.1 1011970
18:00−2wnw5119098 0.1 1010699
21:00−3w5129299 0.1 1010448
4 march, thu
thu400:00−4w5129389 0.0 1007409
03:00−3wsw6129195 0.0 1005466
06:00−2sw71495100 0.6 1000750
09:000w81489100 1.2 998896
12:000wsw61292100 0.0 997894
15:000wsw71198100 0.2 996786
18:00−2wnw51182100 1.9 996729
21:00−4nw51189100 1.9 998475
5 march, fri
fri500:00−8nnw379568 0.0 1001175
03:00−11nw349560 0.0 100483
06:00−12nw33940 0.0 100661
09:00−11wnw24940 0.0 1008134
12:00−7wnw23895 0.0 1009277
15:00−6wnw13869 0.0 1010319
18:00−9sse118930 0.0 101021
21:00−8s229662 0.2 101245
6 march, sat
sat600:00−13n228555 0.0 100921
03:00−14nnw228927 0.0 100920
06:00−14nnw22950 0.0 100920
09:00−12nw249412 0.0 1009117
12:00−9wnw359386 0.1 1009312
15:00−7nw578693 0.2 1009737
18:00−11nw239451 0.0 101030
21:00−13nw229671 0.1 101120